P/2019 E2 ( McNaught )

Japanese version
Home page
Updated on March 23, 2019

---------------------------------------------------------------------

* Profile

Recovery Date March 10, 2019
Magnitude 21.9 mag
Recoverer E. Schwab (Egelsbach, Germany), D. Abreu (European Space Agency's Optical Ground Station, Tenerife)

* Orbital Elements

Epoch 2020 Nov. 7.0 TT = JDT 2459160.5
T 2020 Oct. 20.88457 TT                                 MPCW
q   3.3808585            (2000.0)            P               Q
n   0.06112678     Peri.  194.04882     +0.30501114     +0.89476015
a   6.3823661      Node    94.51305     -0.83912871     +0.41445189
e   0.4702813      Incl.   19.09663     -0.45036786     -0.16623447
P  16.12
From 146 observations 2003 May 30-2019 Mar. 18, mean residual 0".6.

* Magnitudes Graph

        10.0 + 5 log d + 7.5 log r(t - 1000)

---------------------------------------------------------------------

The orbital elements are published on M.P.E.C. 2019-F27.
The magnitudes graphs are made with Comet for Windows.

---------------------------------------------------------------------

Copyright(C) Seiichi Yoshida (comet@aerith.net). All rights reserved.